Simultaneous Nadir Overpasses (SNOs) Predictions

Prediction of SNOs between GOES-15 and NPP Satellite Orbit:

Table of predicted SNOs for the next 14.0 days since TLE Epoch: 12/18/2021
Index Date Time (GOES-15) GOES-15 Lat,Lon NPP Lat,Lon Distance(km) Time Diff (sec)
1 12/19/2021 10:00:13 -0.02,-127.81 0.26,-128.95 130.54 80
2 12/20/2021 09:44:07 -0.01,-127.84 -0.78,-124.42 390.00 80
3 12/21/2021 22:03:22 0.03,-127.87 -0.37,-129.72 210.69 80
4 12/22/2021 21:47:16 0.02,-127.90 0.61,-125.18 309.62 80
5 12/24/2021 10:06:22 -0.04,-127.96 0.54,-130.45 284.49 80
6 12/25/2021 09:50:17 -0.03,-127.99 -0.49,-125.92 235.52 80
7 12/26/2021 22:09:32 0.04,-128.01 -0.65,-131.23 365.95 80
8 12/27/2021 21:53:26 0.04,-128.04 0.33,-126.69 153.88 80
9 12/29/2021 10:12:32 -0.05,-128.09 0.82,-131.96 440.84 80
10 12/30/2021 09:56:27 -0.04,-128.11 -0.22,-127.43 78.48 80
